{"data":{"norad_id":68660,"epoch":"2026-05-24T15:10:43.251456Z","epoch_age_seconds":106879,"freshness":"FRESH","line1":"1 68660U 26076E   26144.63244504 -.00000272  00000+0 -56957-3 0  9999","line2":"2 68660  86.4926  51.8114 0005583 147.0687 213.0802 13.35080239  6249","mean_motion":13.35080239,"eccentricity":0.0005583,"inclination_deg":86.4926,"raan_deg":51.8114,"arg_perigee_deg":147.0687,"mean_anomaly_deg":213.0802,"bstar":-0.00056957,"rev_number":624,"period_min":107.85868578795,"perigee_km":1123.4715006844,"apogee_km":1131.8524758347,"semimajor_km":7505.7989882596,"source":"CELESTRAK","updated_at":"2026-05-25T13:38:07.996266Z"}}